Early, TX

2:09 PM CST on December 02, 2016 (GMT -0600)
Brownwood Regional

Weather History for KBWD - March, 2013

Change the Weather History Date:

Tuesday, March 5, 2013

  Actual Average (KABI) Record (KABI)
Temperature  
Mean Temperature 45 °F 53 °F  
Max Temperature 62 °F 65 °F 93 °F (1991)
Min Temperature 28 °F 41 °F 16 °F (1989)
Degree Days  
Heating Degree Days 20 12  
Month to date heating degree days 64  
Since 1 July heating degree days 2197  
Cooling Degree Days 0 0  
Month to date cooling degree days 0  
Year to date cooling degree days 5  
Moisture  
Dew Point 15 °F    
Average Humidity 32    
Maximum Humidity 62    
Minimum Humidity 10    
Precipitation  
Precipitation 0.00 in 0.06 in 0.76 in (1892)
Month to date precipitation 0.28  
Year to date precipitation 2.66  
Sea Level Pressure  
Sea Level Pressure 30.29 in    
Wind  
Wind Speed 20 mph (North)    
Max Wind Speed 33 mph    
Max Gust Speed 45 mph    
Visibility 10 miles    
Events      
T = Trace of Precipitation, MM = Missing Value Source: NWS Daily Summary

Daily Weather History Graph

Daily Weather History Graph

Search for Another Location

Airport or City:

Trip Planner

Search our weather history database for the weather conditions in past years. The results will help you decide how hot, cold, wet, or windy it might be!

Date:

Astronomy

Mar. 05, 2013 Rise Set
Actual Time 6:57 AM CST 6:36 PM CST
Civil Twilight 6:33 AM CST 7:01 PM CST
Nautical Twilight 6:05 AM CST 7:29 PM CST
Astronomical Twilight 5:37 AM CST 7:57 PM CST
Moon 1:55 AM CST (3/5) 12:33 PM CST (3/5)
Length of Visible Light 12h 27m
Length of Day
11h 39m
Last Quarter, 40% of the Moon is Illuminated
Mar 5
Last Quarter
Mar 11
New
Mar 19
First Quarter
Mar 27
Full
Apr 2
Last Quarter

Hourly Weather History & Observations

Time (CST) Temp. Windchill Dew Point Humidity Pressure Visibility Wind Dir Wind Speed Gust Speed Precip Events Conditions
12:15 AM 62.6 °F - 41.0 °F 45% 29.86 in 10.0 mi North 31.1 mph 38.0 mph N/A   Mostly Cloudy
12:35 AM 55.4 °F - 39.2 °F 54% 29.91 in 10.0 mi North 32.2 mph 42.6 mph N/A   Mostly Cloudy
12:55 AM 53.6 °F - 39.2 °F 58% 29.96 in 10.0 mi North 29.9 mph 40.3 mph N/A   Scattered Clouds
1:15 AM 48.2 °F - 35.6 °F 62% 29.99 in 9.0 mi North 28.8 mph 44.9 mph N/A   Partly Cloudy
1:35 AM 48.2 °F - 35.6 °F 62% 30.03 in 10.0 mi North 33.4 mph 41.4 mph N/A   Scattered Clouds
2:15 AM 48.2 °F - 33.8 °F 58% 30.08 in 10.0 mi North 20.7 mph 36.8 mph N/A   Overcast
2:35 AM 48.2 °F - 33.8 °F 58% 30.09 in 10.0 mi North 31.1 mph 41.4 mph N/A   Overcast
3:15 AM 46.4 °F 37.4 °F 32.0 °F 57% 30.11 in 10.0 mi North 28.8 mph 41.4 mph N/A   Mostly Cloudy
3:35 AM 46.4 °F 38.1 °F 32.0 °F 57% 30.12 in 10.0 mi North 24.2 mph 36.8 mph N/A   Scattered Clouds
3:55 AM 46.4 °F 37.4 °F 32.0 °F 57% 30.14 in 10.0 mi North 28.8 mph 39.1 mph N/A   Mostly Cloudy
4:15 AM 46.4 °F 39.0 °F 30.2 °F 53% 30.16 in 10.0 mi North 19.6 mph 29.9 mph N/A   Overcast
4:35 AM 46.4 °F 38.5 °F 32.0 °F 57% 30.17 in 10.0 mi North 21.9 mph 29.9 mph N/A   Overcast
4:55 AM 44.6 °F 36.6 °F 30.2 °F 57% 30.18 in 10.0 mi North 19.6 mph 38.0 mph N/A   Overcast
5:15 AM 44.6 °F 36.9 °F 28.4 °F 53% 30.19 in 10.0 mi North 18.4 mph 33.4 mph N/A   Overcast
5:35 AM 44.6 °F 37.8 °F 28.4 °F 53% 30.22 in 10.0 mi North 15.0 mph 28.8 mph N/A   Overcast
5:55 AM 42.8 °F 34.8 °F 26.6 °F 53% 30.23 in 10.0 mi North 17.3 mph 31.1 mph N/A   Overcast
6:15 AM 42.8 °F 35.8 °F 26.6 °F 53% 30.26 in 10.0 mi North 13.8 mph 18.4 mph N/A   Mostly Cloudy
6:35 AM 42.8 °F 35.4 °F 24.8 °F 49% 30.28 in 10.0 mi North 15.0 mph 23.0 mph N/A   Scattered Clouds
6:55 AM 41.0 °F 34.3 °F 23.0 °F 49% 30.29 in 10.0 mi North 11.5 mph 18.4 mph N/A   Clear
7:15 AM 41.0 °F 34.3 °F 23.0 °F 49% 30.30 in 10.0 mi North 11.5 mph 17.3 mph N/A   Clear
7:35 AM 41.0 °F 35.2 °F 24.8 °F 53% 30.32 in 10.0 mi North 9.2 mph - N/A   Clear
7:55 AM 42.8 °F 37.5 °F 26.6 °F 53% 30.33 in 10.0 mi North 9.2 mph - N/A   Clear
8:15 AM 44.6 °F 37.8 °F 26.6 °F 49% 30.34 in 10.0 mi North 15.0 mph 21.9 mph N/A   Clear
8:35 AM 44.6 °F 37.2 °F 23.0 °F 43% 30.35 in 10.0 mi North 17.3 mph 25.3 mph N/A   Clear
8:55 AM 46.4 °F 39.5 °F 17.6 °F 32% 30.36 in 10.0 mi North 17.3 mph 29.9 mph N/A   Clear
9:15 AM 48.2 °F - 17.6 °F 30% 30.36 in 10.0 mi North 24.2 mph 32.2 mph N/A   Clear
9:35 AM 48.2 °F - 15.8 °F 27% 30.37 in 10.0 mi North 17.3 mph 29.9 mph N/A   Clear
9:55 AM 48.2 °F - 15.8 °F 27% 30.37 in 10.0 mi North 18.4 mph 26.5 mph N/A   Clear
10:15 AM 50.0 °F - 15.8 °F 26% 30.38 in 10.0 mi North 19.6 mph 26.5 mph N/A   Clear
10:35 AM 50.0 °F - 12.2 °F 22% 30.38 in 10.0 mi North 17.3 mph 28.8 mph N/A   Clear
10:55 AM 50.0 °F - 6.8 °F 17% 30.38 in 10.0 mi North 18.4 mph 32.2 mph N/A   Clear
11:15 AM 50.0 °F - 5.0 °F 16% 30.39 in 10.0 mi NNE 18.4 mph 32.2 mph N/A   Clear
11:35 AM 53.6 °F - 6.8 °F 15% 30.38 in 10.0 mi North 21.9 mph 27.6 mph N/A   Clear
11:55 AM 53.6 °F - 5.0 °F 14% 30.38 in 10.0 mi North 24.2 mph 33.4 mph N/A   Clear
12:15 PM 53.6 °F - 6.8 °F 15% 30.38 in 10.0 mi North 19.6 mph 29.9 mph N/A   Clear
12:35 PM 55.4 °F - 5.0 °F 13% 30.37 in 10.0 mi North 23.0 mph 35.7 mph N/A   Clear
12:55 PM 55.4 °F - 8.6 °F 15% 30.36 in 10.0 mi North 17.3 mph 26.5 mph N/A   Clear
1:15 PM 55.4 °F - 6.8 °F 14% 30.35 in 10.0 mi North 25.3 mph 32.2 mph N/A   Clear
1:35 PM 57.2 °F - 3.2 °F 11% 30.34 in 10.0 mi North 25.3 mph 33.4 mph N/A   Clear
1:55 PM 57.2 °F - 6.8 °F 13% 30.34 in 10.0 mi North 21.9 mph 29.9 mph N/A   Clear
2:15 PM 57.2 °F - 5.0 °F 12% 30.33 in 10.0 mi North 25.3 mph 28.8 mph N/A   Clear
2:35 PM 57.2 °F - 5.0 °F 12% 30.32 in 10.0 mi North 17.3 mph 25.3 mph N/A   Clear
2:55 PM 57.2 °F - 3.2 °F 11% 30.33 in 10.0 mi North 12.7 mph 26.5 mph N/A   Clear
3:15 PM 57.2 °F - 1.4 °F 10% 30.33 in 10.0 mi North 17.3 mph 26.5 mph N/A   Clear
3:35 PM 57.2 °F - 1.4 °F 10% 30.33 in 10.0 mi North 16.1 mph 26.5 mph N/A   Clear
3:55 PM 57.2 °F - 3.2 °F 11% 30.33 in 10.0 mi North 16.1 mph 24.2 mph N/A   Clear
4:15 PM 57.2 °F - -0.4 °F 10% 30.33 in 10.0 mi North 15.0 mph 24.2 mph N/A   Clear
4:35 PM 57.2 °F - 1.4 °F 10% 30.33 in 10.0 mi North 15.0 mph 23.0 mph N/A   Clear
4:55 PM 57.2 °F - 1.4 °F 10% 30.33 in 10.0 mi North 17.3 mph 26.5 mph N/A   Clear
5:15 PM 55.4 °F - 3.2 °F 12% 30.33 in 10.0 mi North 15.0 mph 19.6 mph N/A   Clear
5:35 PM 55.4 °F - 5.0 °F 13% 30.34 in 10.0 mi NNW 11.5 mph - N/A   Clear
5:55 PM 55.4 °F - 3.2 °F 12% 30.34 in 10.0 mi NNW 15.0 mph 19.6 mph N/A   Clear
6:15 PM 53.6 °F - 5.0 °F 14% 30.34 in 10.0 mi North 9.2 mph - N/A   Clear
6:35 PM 53.6 °F - 5.0 °F 14% 30.35 in 10.0 mi North 6.9 mph - N/A   Clear
6:55 PM 50.0 °F - 6.8 °F 17% 30.35 in 10.0 mi North 6.9 mph - N/A   Clear
7:15 PM 50.0 °F - 6.8 °F 17% 30.36 in 10.0 mi North 5.8 mph - N/A   Partly Cloudy
7:35 PM 48.2 °F - 6.8 °F 19% 30.36 in 10.0 mi North 6.9 mph - N/A   Partly Cloudy
7:55 PM 48.2 °F - 6.8 °F 19% 30.36 in 10.0 mi North 5.8 mph - N/A   Partly Cloudy
8:15 PM 46.4 °F 42.9 °F 8.6 °F 22% 30.36 in 10.0 mi North 6.9 mph - N/A   Partly Cloudy
8:35 PM 41.0 °F - 10.4 °F 29% 30.36 in 10.0 mi Calm Calm - N/A   Partly Cloudy
8:55 PM 41.0 °F 37.1 °F 8.6 °F 26% 30.37 in 10.0 mi NNE 5.8 mph - N/A   Partly Cloudy
9:15 PM 41.0 °F 39.0 °F 8.6 °F 26% 30.38 in 10.0 mi NNE 3.5 mph - N/A   Partly Cloudy
9:35 PM 39.2 °F 37.0 °F 10.4 °F 31% 30.38 in 10.0 mi North 3.5 mph - N/A   Partly Cloudy
9:55 PM 35.6 °F - 10.4 °F 35% 30.39 in 10.0 mi Calm Calm - N/A   Clear
10:15 PM 37.4 °F 34.9 °F 10.4 °F 33% 30.40 in 10.0 mi North 3.5 mph - N/A   Clear
10:35 PM 35.6 °F 31.7 °F 10.4 °F 35% 30.40 in 10.0 mi North 4.6 mph - N/A   Clear
10:55 PM 28.4 °F 23.3 °F 12.2 °F 51% 30.40 in 10.0 mi NNE 4.6 mph - N/A   Clear
11:15 PM 32.0 °F - 10.4 °F 41% 30.39 in 10.0 mi Calm Calm - N/A   Clear
11:35 PM 35.6 °F 29.9 °F 10.4 °F 35% 30.39 in 10.0 mi North 6.9 mph - N/A   Clear
11:55 PM 32.0 °F - 10.4 °F 41% 30.39 in 10.0 mi Calm Calm - N/A   Clear